Location: St. Louis
(38.6270°N, 90.1994°W)
Time: 11:10:23
(UTC-06:00)

S-56A Canister/Altair - Pass Details

Date: 06 December 2021
Orbit: 634 x 2499 km, 38.9° (Epoch: 26 January)

Event Time Altitude Azimuth Distance (km) Brightness Sun altitude
Rises 04:07:25 0° 284° (WNW) 3,964 - -33.8°
Reaches altitude 10° 04:10:40 10° 278° (W) 2,732 - -33.2°
Maximum altitude 04:16:30 44° 208° (SSW) 1,048 - -32.1°
Exits shadow 04:18:48 26° 152° (SSE) 1,368 9.0 -31.6°
Drops below altitude 10° 04:20:58 10° 136° (SE) 2,088 10.3 -31.2°
Sets 04:23:09 0° 129° (SE) 2,935 11.3 -30.8°
